• In Belarus
  • List of Countries
  • For 7 days
  • Water Temperature
  • Weather Map
  • Weather Widgets
  • user-avatar
    Login

    Hourly Weather Svestur

    Today, 27 February, Thursday

    Time Temperature Precipitation Wind Pressure Humidity
    00:00 0°C° 0.1 mm 4 mps 738 mmHg 98%
    01:00 0°C° 0.1 mm 3 mps 738 mmHg 98%
    02:00 0°C° 0.1 mm 3 mps 738 mmHg 98%
    03:00 +1°C° 0.1 mm 2 mps 738 mmHg 99%
    04:00 +1°C° 0.1 mm 2 mps 738 mmHg 98%
    05:00 +1°C° 0.1 mm 2 mps 738 mmHg 98%
    06:00 +1°C° 0.1 mm 2 mps 738 mmHg 98%
    07:00 +1°C° 0.2 mm 2 mps 738 mmHg 98%
    08:00 +1°C° 0.2 mm 2 mps 738 mmHg 98%
    09:00 +1°C° 0.2 mm 2 mps 738 mmHg 98%
    10:00 0°C° 0.1 mm 3 mps 738 mmHg 99%
    11:00 0°C° 0.1 mm 3 mps 738 mmHg 99%
    12:00 0°C° 0.1 mm 4 mps 738 mmHg 99%
    13:00 0°C° 0.1 mm 4 mps 738 mmHg 99%
    14:00 0°C° 0.1 mm 4 mps 737 mmHg 98%
    15:00 0°C° 0.1 mm 4 mps 737 mmHg 98%
    16:00 0°C° 0 mm 4 mps 737 mmHg 98%
    17:00 0°C° 0 mm 4 mps 737 mmHg 97%
    18:00 -1°C° 0 mm 5 mps 737 mmHg 97%
    19:00 -1°C° 0.1 mm 4 mps 737 mmHg 97%
    20:00 0°C° 0.1 mm 4 mps 737 mmHg 97%
    21:00 0°C° 0.1 mm 4 mps 737 mmHg 97%
    22:00 0°C° 1.2 mm 4 mps 736 mmHg 98%
    23:00 0°C° 1.2 mm 4 mps 736 mmHg 98%

    Tomorrow, 28 February, Friday

    Time Temperature Precipitation Wind Pressure Humidity
    00:00 0°C° 1.2 mm 4 mps 736 mmHg 98%
    01:00 +1°C° 0.1 mm 3 mps 736 mmHg 98%
    02:00 +1°C° 0.1 mm 3 mps 736 mmHg 98%
    03:00 +1°C° 0.1 mm 3 mps 736 mmHg 98%
    04:00 +1°C° 0.1 mm 2 mps 736 mmHg 98%
    05:00 +1°C° 0.1 mm 2 mps 737 mmHg 99%
    06:00 +2°C° 0.1 mm 1 mps 737 mmHg 99%
    07:00 +2°C° 0 mm 1 mps 737 mmHg 99%
    08:00 +3°C° 0 mm 1 mps 737 mmHg 99%
    09:00 +3°C° 0 mm 1 mps 736 mmHg 99%
    10:00 +2°C° 1.5 mm 2 mps 736 mmHg 99%
    11:00 +1°C° 1.5 mm 3 mps 735 mmHg 99%
    12:00 +1°C° 1.5 mm 3 mps 735 mmHg 98%
    13:00 +1°C° 1.4 mm 4 mps 734 mmHg 98%
    14:00 +1°C° 1.4 mm 4 mps 733 mmHg 98%
    15:00 +2°C° 1.4 mm 5 mps 733 mmHg 97%
    16:00 +2°C° 1.3 mm 5 mps 732 mmHg 97%
    17:00 +2°C° 1.3 mm 5 mps 732 mmHg 97%
    18:00 +2°C° 1.3 mm 6 mps 732 mmHg 96%
    19:00 +1°C° 0.2 mm 6 mps 733 mmHg 96%
    20:00 -1°C° 0.2 mm 6 mps 733 mmHg 96%
    21:00 -2°C° 0.2 mm 6 mps 734 mmHg 96%
    22:00 -3°C° 0.2 mm 6 mps 734 mmHg 94%
    23:00 -3°C° 0.2 mm 6 mps 735 mmHg 92%

    Day after tomorrow, 29 February, Saturday

    Time Temperature Precipitation Wind Pressure Humidity
    00:00 -3°C° 0.2 mm 6 mps 736 mmHg 89%
    01:00 -4°C° 0 mm 6 mps 737 mmHg 88%
    02:00 -4°C° 0 mm 6 mps 738 mmHg 88%
    03:00 -4°C° 0 mm 5 mps 738 mmHg 87%
    04:00 -4°C° 0 mm 5 mps 739 mmHg 86%
    05:00 -5°C° 0 mm 5 mps 740 mmHg 86%
    06:00 -5°C° 0 mm 5 mps 740 mmHg 86%
    07:00 -5°C° 0 mm 5 mps 741 mmHg 86%
    08:00 -4°C° 0 mm 5 mps 741 mmHg 85%
    09:00 -4°C° 0 mm 5 mps 742 mmHg 85%
    10:00 -4°C° 0 mm 5 mps 742 mmHg 82%
    11:00 -2°C° 0 mm 5 mps 742 mmHg 79%
    12:00 -2°C° 0 mm 5 mps 743 mmHg 76%
    13:00 -2°C° 0 mm 6 mps 743 mmHg 75%
    14:00 -2°C° 0 mm 6 mps 743 mmHg 74%
    15:00 -2°C° 0 mm 6 mps 744 mmHg 73%
    16:00 -1°C° 0 mm 5 mps 744 mmHg 76%
    17:00 -2°C° 0 mm 5 mps 745 mmHg 78%
    18:00 -3°C° 0 mm 4 mps 745 mmHg 81%
    19:00 -3°C° 0 mm 4 mps 746 mmHg 82%
    20:00 -3°C° 0 mm 4 mps 746 mmHg 84%
    21:00 -4°C° 0 mm 3 mps 747 mmHg 85%
    22:00 -4°C° 0 mm 3 mps 747 mmHg 86%
    23:00 -4°C° 0 mm 3 mps 748 mmHg 87%

    1 March, Sunday

    Time Temperature Precipitation Wind Pressure Humidity
    00:00 -4°C° 0 mm 3 mps 748 mmHg 87%
    01:00 -4°C° 0 mm 3 mps 749 mmHg 88%
    02:00 -3°C° 0 mm 2 mps 749 mmHg 88%
    03:00 -4°C° 0 mm 2 mps 750 mmHg 88%
    04:00 -4°C° 0 mm 2 mps 750 mmHg 89%
    05:00 -4°C° 0 mm 2 mps 751 mmHg 89%
    06:00 -4°C° 0 mm 2 mps 751 mmHg 89%
    07:00 -4°C° 0 mm 2 mps 752 mmHg 87%
    08:00 -3°C° 0 mm 2 mps 752 mmHg 84%
    09:00 -3°C° 0 mm 2 mps 753 mmHg 82%
    10:00 0°C° 0 mm 1 mps 753 mmHg 77%
    11:00 +1°C° 0 mm 1 mps 754 mmHg 72%
    12:00 +2°C° 0 mm 1 mps 754 mmHg 66%
    13:00 +2°C° 0 mm 1 mps 754 mmHg 64%
    14:00 +2°C° 0 mm 1 mps 754 mmHg 62%
    15:00 +2°C° 0 mm 1 mps 754 mmHg 60%
    16:00 +2°C° 0 mm 1 mps 755 mmHg 65%
    17:00 +1°C° 0 mm 1 mps 755 mmHg 70%
    18:00 0°C° 0 mm 1 mps 755 mmHg 75%
    19:00 -2°C° 0 mm 2 mps 755 mmHg 77%
    20:00 -2°C° 0 mm 2 mps 755 mmHg 79%
    21:00 -3°C° 0 mm 2 mps 755 mmHg 80%
    22:00 -3°C° 0 mm 2 mps 755 mmHg 82%
    23:00 -3°C° 0 mm 2 mps 755 mmHg 83%

    2 March, Monday

    Time Temperature Precipitation Wind Pressure Humidity
    00:00 -3°C° 0 mm 2 mps 755 mmHg 85%
    01:00 -4°C° 0 mm 3 mps 755 mmHg 86%
    02:00 -4°C° 0 mm 3 mps 755 mmHg 87%
    03:00 -4°C° 0 mm 3 mps 755 mmHg 89%
    04:00 -4°C° 0 mm 3 mps 755 mmHg 89%
    05:00 -4°C° 0 mm 3 mps 755 mmHg 89%
    06:00 -4°C° 0 mm 3 mps 755 mmHg 89%
    07:00 -4°C° 0 mm 4 mps 755 mmHg 86%
    08:00 -3°C° 0 mm 4 mps 755 mmHg 83%
    09:00 -4°C° 0 mm 5 mps 755 mmHg 80%
    10:00 -2°C° 0 mm 5 mps 754 mmHg 76%
    11:00 -1°C° 0 mm 5 mps 754 mmHg 72%
    12:00 0°C° 0 mm 5 mps 754 mmHg 68%
    13:00 +1°C° 0 mm 5 mps 754 mmHg 68%
    14:00 +1°C° 0 mm 5 mps 753 mmHg 67%
    15:00 +1°C° 0 mm 5 mps 753 mmHg 67%
    16:00 0°C° 0 mm 5 mps 753 mmHg 71%
    17:00 0°C° 0 mm 4 mps 753 mmHg 74%
    18:00 -1°C° 0 mm 4 mps 753 mmHg 78%
    19:00 -1°C° 0 mm 4 mps 753 mmHg 79%
    20:00 -1°C° 0 mm 4 mps 753 mmHg 79%
    21:00 -1°C° 0 mm 4 mps 753 mmHg 80%
    22:00 -2°C° 0 mm 4 mps 753 mmHg 80%
    23:00 -2°C° 0 mm 4 mps 753 mmHg 80%

    3 March, Tuesday

    Time Temperature Precipitation Wind Pressure Humidity
    00:00 -2°C° 0 mm 4 mps 753 mmHg 81%
    01:00 -2°C° 0 mm 4 mps 753 mmHg 82%
    02:00 -2°C° 0 mm 4 mps 753 mmHg 83%
    03:00 -2°C° 0 mm 4 mps 753 mmHg 84%
    04:00 -2°C° 0 mm 4 mps 753 mmHg 84%
    05:00 -3°C° 0 mm 4 mps 753 mmHg 84%
    06:00 -3°C° 0 mm 4 mps 753 mmHg 84%
    07:00 -2°C° 0 mm 4 mps 753 mmHg 81%
    08:00 -2°C° 0 mm 4 mps 753 mmHg 78%
    09:00 -1°C° 0 mm 5 mps 753 mmHg 76%
    10:00 0°C° 0 mm 5 mps 753 mmHg 71%
    11:00 +1°C° 0 mm 5 mps 753 mmHg 67%
    12:00 +1°C° 0 mm 6 mps 753 mmHg 63%
    13:00 +1°C° 0 mm 6 mps 753 mmHg 62%
    14:00 +1°C° 0 mm 5 mps 752 mmHg 61%
    15:00 +1°C° 0 mm 5 mps 752 mmHg 60%
    16:00 0°C° 0 mm 5 mps 752 mmHg 62%
    17:00 0°C° 0 mm 5 mps 752 mmHg 64%
    18:00 -1°C° 0 mm 5 mps 751 mmHg 66%
    19:00 -1°C° 0 mm 5 mps 751 mmHg 66%
    20:00 -1°C° 0 mm 5 mps 751 mmHg 66%
    21:00 -1°C° 0 mm 5 mps 751 mmHg 66%
    22:00 -1°C° 0 mm 5 mps 751 mmHg 67%
    23:00 -2°C° 0 mm 5 mps 751 mmHg 68%
    Show more